weather.gov     
National Weather Service

Terminal Aerodrome Forecast
NWS Homepage
This page is being discontinued on March 12, 2014.
The same data is available at this site. Please update your bookmarks.
Thank you, and we apologize for the inconvenience.
Please send an email to SR-SRH.Webmaster@noaa.gov with any concerns.


Current Version
Previous Version:    01  02  03  04  05  06  07  08  09  10  11  12  13  14  
[Printable]
878
FTUS41 KCAR 240500 RRA
TAFPQI
TAF
KPQI 240548Z 2406/2506 01012G22KT 5SM -RA SCT025 OVC035
     FM240700 01010G20KT 3SM +RA SCT015 OVC025
     FM241000 01010G20KT 5SM -RA SCT007 OVC010
     FM241300 01010G20KT 6SM -RA OVC015
     FM242100 35010G20KT P6SM -RA OVC015
     FM250000 35009KT P6SM OVC020
      AMD LTD TO CLD VIS AND WIND=


U.S. Dept. of Commerce
NOAA National Weather Service
1325 East West Highway
Silver Spring, MD 20910
E-mail: w-nws.webmaster@noaa.gov
Page last modified: May 16, 2007
NATIONAL WEATHER SERVICE: for Safety, for Work, for Fun - FOR LIFE